Weather in Chernoye Ozero

Russia / Republic of Khakassia     54°41′17″N   89°25′46″E
temp.,
°C
wind,
m/s
gust,
m/s
humid.,
%
clouds,
%
prec.,
mm/h
press.,
hPa
HPBL,
m
27 february, sat
sat2701:00−28sw2482100 0.0 103758
04:00−27s2384100 0.0 103840
07:00−27s2384100 0.0 103842
10:00−24ssw3979100 0.0 1038587
13:00−19wsw4868100 0.0 10371186
16:00−18wsw4969100 0.0 10371273
19:00−23sw2280100 0.0 103820
22:00−24sw2287100 0.0 103921
28 february, sun
sun2801:00−25sw1287100 0.0 103923
04:00−26sw1287100 0.0 104022
07:00−26sw1288100 0.0 104021
10:00−23sw128699 0.0 1040108
13:00−18s247689 0.0 1038490
16:00−16ese238479 0.0 1035328
19:00−23ese119987 0.0 103420
22:00−21sse1194100 0.0 103220
1 march, mon
mon101:00−20se1191100 0.0 102920
04:00−19se1190100 0.0 102520
07:00−18se1193100 0.0 102121
10:00−16ese1195100 0.1 1018114
13:00−12ese2294100 0.6 1015173
16:00−9ese2292100 0.4 1014141
19:00−11ese1197100 0.6 101221
22:00−10sse1296100 0.0 101036
2 march, tue
tue201:00−5wsw51484100 0.0 1009650
04:00−5wsw51583100 0.0 1009643
07:00−6wsw5138177 0.0 1011350
10:00−5wnw288881 0.0 1013541
13:00−2w4107290 0.1 10151643
16:00−2w3875100 0.2 10151533
19:00−8n1189100 0.4 101521
22:00−13ne1298100 0.0 101620
3 march, wed
wed301:00−15n1297100 0.1 101520
04:00−16nne0198100 0.0 101420
07:00−15ene0096100 0.1 101420
10:00−12e1193100 0.1 1013124
13:00−10ene2290100 0.3 1013306
16:00−9ene2291100 0.1 1013284
19:00−14nne2297100 0.4 101537
22:00−18n229895 0.1 101825